owner,sensor,date,latitude,longitude,vertical_datum,wind_speed,wind_to_direction,wind_speed_of_gust,qcFlag 
NDBC,ioos:station:NOAA.NDBC:SGOF1:1,2017-02-01T00:00:00Z,29.4080,-84.8580,35.1,2.6,260.0,2.6,'1111122,1111122,1111122' 
NDBC,ioos:station:NOAA.NDBC:SGOF1:1,2017-02-01T01:00:00Z,29.4080,-84.8580,35.1,2.1,260.0,2.1,'1111122,1111122,1111122' 
NDBC,ioos:station:NOAA.NDBC:SGOF1:1,2017-02-01T02:00:00Z,29.4080,-84.8580,35.1,1.5,240.0,1.5,'1111122,1111122,1111122' 
NDBC,ioos:station:NOAA.NDBC:SGOF1:1,2017-02-01T03:00:00Z,29.4080,-84.8580,35.1,1.5,200.0,1.5,'1111122,1111122,1111122' 
NDBC,ioos:station:NOAA.NDBC:SGOF1:1,2017-02-01T04:00:00Z,29.4080,-84.8580,35.1,2.6,190.0,2.6,'1111122,1111122,1111122' 
NDBC,ioos:station:NOAA.NDBC:SGOF1:1,2017-02-01T05:00:00Z,29.4080,-84.8580,35.1,3.1,230.0,3.6,'1111122,1111122,1111122' 
NDBC,ioos:station:NOAA.NDBC:SGOF1:1,2017-02-01T06:00:00Z,29.4080,-84.8580,35.1,4.6,240.0,4.6,'1111122,1111122,1111122' 
NDBC,ioos:station:NOAA.NDBC:SGOF1:1,2017-02-01T07:00:00Z,29.4080,-84.8580,35.1,6.2,220.0,6.7,'1111122,1111122,1111122' 
NDBC,ioos:station:NOAA.NDBC:SGOF1:1,2017-02-01T08:00:00Z,29.4080,-84.8580,35.1,4.6,230.0,5.1,'1111122,1111122,1111122' 
NDBC,ioos:station:NOAA.NDBC:SGOF1:1,2017-02-01T09:00:00Z,29.4080,-84.8580,35.1,4.1,240.0,4.1,'1111122,1111122,1111122' 
NDBC,ioos:station:NOAA.NDBC:SGOF1:1,2017-02-01T10:00:00Z,29.4080,-84.8580,35.1,4.1,240.0,4.6,'1111122,1111122,1111122' 
NDBC,ioos:station:NOAA.NDBC:SGOF1:1,2017-02-01T11:00:00Z,29.4080,-84.8580,35.1,4.1,250.0,4.1,'1111122,1111122,1111122' 
NDBC,ioos:station:NOAA.NDBC:SGOF1:1,2017-02-01T12:00:00Z,29.4080,-84.8580,35.1,2.6,230.0,3.1,'1111122,1111122,1111122' 
NDBC,ioos:station:NOAA.NDBC:SGOF1:1,2017-02-01T13:00:00Z,29.4080,-84.8580,35.1,3.1,230.0,3.1,'1111122,1111122,1111122' 
NDBC,ioos:station:NOAA.NDBC:SGOF1:1,2017-02-01T14:00:00Z,29.4080,-84.8580,35.1,3.6,210.0,3.6,'1111122,1111122,1111122' 
NDBC,ioos:station:NOAA.NDBC:SGOF1:1,2017-02-01T15:00:00Z,29.4080,-84.8580,35.1,3.1,200.0,3.1,'1111122,1111122,1111122' 
NDBC,ioos:station:NOAA.NDBC:SGOF1:1,2017-02-01T16:00:00Z,29.4080,-84.8580,35.1,2.6,200.0,2.6,'1111122,1111122,1111122' 
NDBC,ioos:station:NOAA.NDBC:SGOF1:1,2017-02-01T17:00:00Z,29.4080,-84.8580,35.1,2.1,220.0,2.1,'1111122,1111122,1111122' 
NDBC,ioos:station:NOAA.NDBC:SGOF1:1,2017-02-01T18:00:00Z,29.4080,-84.8580,35.1,1.5,150.0,2.1,'1111122,1111122,1111122' 
NDBC,ioos:station:NOAA.NDBC:SGOF1:1,2017-02-01T19:00:00Z,29.4080,-84.8580,35.1,1.5,170.0,2.1,'1111122,1111122,1111122' 
NDBC,ioos:station:NOAA.NDBC:SGOF1:1,2017-02-01T20:00:00Z,29.4080,-84.8580,35.1,3.1,190.0,3.6,'1111122,1111122,1111122' 
NDBC,ioos:station:NOAA.NDBC:SGOF1:1,2017-02-01T21:00:00Z,29.4080,-84.8580,35.1,3.1,200.0,3.1,'1111122,1111122,1111122' 
NDBC,ioos:station:NOAA.NDBC:SGOF1:1,2017-02-01T22:00:00Z,29.4080,-84.8580,35.1,3.6,180.0,3.6,'1111122,1111122,1111122' 
NDBC,ioos:station:NOAA.NDBC:SGOF1:1,2017-02-01T23:00:00Z,29.4080,-84.8580,35.1,4.6,190.0,4.6,'1111122,1111122,1111122' 
NDBC,ioos:station:NOAA.NDBC:SGOF1:1,2017-02-02T00:00:00Z,29.4080,-84.8580,35.1,3.6,190.0,3.6,'1111122,1111122,1111122' 
NDBC,ioos:station:NOAA.NDBC:SGOF1:1,2017-02-02T01:00:00Z,29.4080,-84.8580,35.1,3.6,190.0,4.1,'1111122,1111122,1111122' 
NDBC,ioos:station:NOAA.NDBC:SGOF1:1,2017-02-02T02:00:00Z,29.4080,-84.8580,35.1,2.1,170.0,2.6,'1111122,1111122,1111122' 
NDBC,ioos:station:NOAA.NDBC:SGOF1:1,2017-02-02T03:00:00Z,29.4080,-84.8580,35.1,3.1,180.0,3.6,'1111122,1111122,1111122' 
NDBC,ioos:station:NOAA.NDBC:SGOF1:1,2017-02-02T04:00:00Z,29.4080,-84.8580,35.1,3.1,180.0,3.1,'1111122,1111122,1111122' 
NDBC,ioos:station:NOAA.NDBC:SGOF1:1,2017-02-02T05:00:00Z,29.4080,-84.8580,35.1,2.6,180.0,3.1,'1111122,1111122,1111122' 
NDBC,ioos:station:NOAA.NDBC:SGOF1:1,2017-02-02T06:00:00Z,29.4080,-84.8580,35.1,3.1,180.0,3.1,'1111122,1111122,1111122' 
NDBC,ioos:station:NOAA.NDBC:SGOF1:1,2017-02-02T07:00:00Z,29.4080,-84.8580,35.1,2.1,190.0,2.1,'1111122,1111122,1111122' 
NDBC,ioos:station:NOAA.NDBC:SGOF1:1,2017-02-02T08:00:00Z,29.4080,-84.8580,35.1,2.1,190.0,2.1,'1111122,1111122,1111122' 
NDBC,ioos:station:NOAA.NDBC:SGOF1:1,2017-02-02T09:00:00Z,29.4080,-84.8580,35.1,1.5,150.0,1.5,'1111122,1111122,1111122' 
NDBC,ioos:station:NOAA.NDBC:SGOF1:1,2017-02-02T10:00:00Z,29.4080,-84.8580,35.1,2.6,180.0,2.6,'1111122,1111122,1111122' 
NDBC,ioos:station:NOAA.NDBC:SGOF1:1,2017-02-02T11:00:00Z,29.4080,-84.8580,35.1,4.1,180.0,4.1,'1111122,1111122,1111122' 
NDBC,ioos:station:NOAA.NDBC:SGOF1:1,2017-02-02T12:00:00Z,29.4080,-84.8580,35.1,5.7,180.0,6.2,'1111122,1111122,1111122' 
NDBC,ioos:station:NOAA.NDBC:SGOF1:1,2017-02-02T13:00:00Z,29.4080,-84.8580,35.1,5.1,190.0,5.1,'1111122,1111122,1111122' 
NDBC,ioos:station:NOAA.NDBC:SGOF1:1,2017-02-02T14:00:00Z,29.4080,-84.8580,35.1,4.6,200.0,4.6,'1111122,1111122,1111122' 
NDBC,ioos:station:NOAA.NDBC:SGOF1:1,2017-02-02T15:00:00Z,29.4080,-84.8580,35.1,4.1,190.0,4.1,'1111122,1111122,1111122' 
NDBC,ioos:station:NOAA.NDBC:SGOF1:1,2017-02-02T16:00:00Z,29.4080,-84.8580,35.1,4.1,190.0,4.1,'1111122,1111122,1111122' 
NDBC,ioos:station:NOAA.NDBC:SGOF1:1,2017-02-02T17:00:00Z,29.4080,-84.8580,35.1,3.6,210.0,3.6,'1111122,1111122,1111122' 
NDBC,ioos:station:NOAA.NDBC:SGOF1:1,2017-02-02T18:00:00Z,29.4080,-84.8580,35.1,1.5,170.0,1.5,'1111122,1111122,1111122' 
NDBC,ioos:station:NOAA.NDBC:SGOF1:1,2017-02-02T19:00:00Z,29.4080,-84.8580,35.1,2.1,190.0,2.1,'1111122,1111122,1111122' 
NDBC,ioos:station:NOAA.NDBC:SGOF1:1,2017-02-02T20:00:00Z,29.4080,-84.8580,35.1,2.6,210.0,2.6,'1111122,1111122,1111122' 
NDBC,ioos:station:NOAA.NDBC:SGOF1:1,2017-02-02T21:00:00Z,29.4080,-84.8580,35.1,2.6,170.0,2.6,'1111122,1111122,1111122' 
NDBC,ioos:station:NOAA.NDBC:SGOF1:1,2017-02-02T22:00:00Z,29.4080,-84.8580,35.1,3.6,230.0,3.6,'1111122,1111122,1111122' 
NDBC,ioos:station:NOAA.NDBC:SGOF1:1,2017-02-02T23:00:00Z,29.4080,-84.8580,35.1,1.5,200.0,2.1,'1111122,1111122,1111122' 
NDBC,ioos:station:NOAA.NDBC:SGOF1:1,2017-02-03T00:00:00Z,29.4080,-84.8580,35.1,2.6,190.0,2.6,'1111122,1111122,1111122' 
NDBC,ioos:station:NOAA.NDBC:SGOF1:1,2017-02-03T01:00:00Z,29.4080,-84.8580,35.1,3.6,200.0,4.1,'1111122,1111122,1111122' 
NDBC,ioos:station:NOAA.NDBC:SGOF1:1,2017-02-03T02:00:00Z,29.4080,-84.8580,35.1,4.1,190.0,4.1,'1111122,1111122,1111122' 
NDBC,ioos:station:NOAA.NDBC:SGOF1:1,2017-02-03T03:00:00Z,29.4080,-84.8580,35.1,3.1,180.0,3.6,'1111122,1111122,1111122' 
NDBC,ioos:station:NOAA.NDBC:SGOF1:1,2017-02-03T04:00:00Z,29.4080,-84.8580,35.1,4.6,190.0,5.1,'1111122,1111122,1111122' 
NDBC,ioos:station:NOAA.NDBC:SGOF1:1,2017-02-03T05:00:00Z,29.4080,-84.8580,35.1,5.1,210.0,5.1,'1111122,1111122,1111122' 
NDBC,ioos:station:NOAA.NDBC:SGOF1:1,2017-02-03T06:00:00Z,29.4080,-84.8580,35.1,5.1,210.0,5.1,'1111122,1111122,1111122' 
NDBC,ioos:station:NOAA.NDBC:SGOF1:1,2017-02-03T07:00:00Z,29.4080,-84.8580,35.1,5.1,220.0,5.1,'1111122,1111122,1111122' 
NDBC,ioos:station:NOAA.NDBC:SGOF1:1,2017-02-03T08:00:00Z,29.4080,-84.8580,35.1,4.6,220.0,4.6,'1111122,1111122,1111122' 
NDBC,ioos:station:NOAA.NDBC:SGOF1:1,2017-02-03T10:00:00Z,29.4080,-84.8580,35.1,3.1,240.0,3.1,'1111122,1111122,1111122' 
NDBC,ioos:station:NOAA.NDBC:SGOF1:1,2017-02-03T11:00:00Z,29.4080,-84.8580,35.1,2.6,240.0,2.6,'1111122,1111122,1111122' 
NDBC,ioos:station:NOAA.NDBC:SGOF1:1,2017-02-03T12:00:00Z,29.4080,-84.8580,35.1,2.1,220.0,2.1,'1111122,1111122,1111122' 
NDBC,ioos:station:NOAA.NDBC:SGOF1:1,2017-02-03T13:00:00Z,29.4080,-84.8580,35.1,2.6,220.0,2.6,'1111122,1111122,1111122' 
NDBC,ioos:station:NOAA.NDBC:SGOF1:1,2017-02-03T14:00:00Z,29.4080,-84.8580,35.1,3.6,230.0,3.6,'1111122,1111122,1111122' 
NDBC,ioos:station:NOAA.NDBC:SGOF1:1,2017-02-03T15:00:00Z,29.4080,-84.8580,35.1,1.5,250.0,1.5,'1111122,1111122,1111122' 
NDBC,ioos:station:NOAA.NDBC:SGOF1:1,2017-02-03T16:00:00Z,29.4080,-84.8580,35.1,2.1,290.0,2.1,'1111122,1111122,1111122' 
NDBC,ioos:station:NOAA.NDBC:SGOF1:1,2017-02-03T17:00:00Z,29.4080,-84.8580,35.1,3.6,360.0,4.1,'1111122,1111122,1111122' 
NDBC,ioos:station:NOAA.NDBC:SGOF1:1,2017-02-03T18:00:00Z,29.4080,-84.8580,35.1,1.0,330.0,1.5,'1111122,1111122,1111122' 
NDBC,ioos:station:NOAA.NDBC:SGOF1:1,2017-02-03T19:00:00Z,29.4080,-84.8580,35.1,1.5,260.0,1.5,'1111122,1111122,1111122' 
NDBC,ioos:station:NOAA.NDBC:SGOF1:1,2017-02-03T20:00:00Z,29.4080,-84.8580,35.1,5.1,280.0,5.1,'1111122,1111122,1111122' 
NDBC,ioos:station:NOAA.NDBC:SGOF1:1,2017-02-03T21:00:00Z,29.4080,-84.8580,35.1,6.7,290.0,7.7,'1111122,1111122,1111122' 
NDBC,ioos:station:NOAA.NDBC:SGOF1:1,2017-02-03T22:00:00Z,29.4080,-84.8580,35.1,7.2,300.0,7.7,'1111122,1111122,1111122' 
NDBC,ioos:station:NOAA.NDBC:SGOF1:1,2017-02-04T00:00:00Z,29.4080,-84.8580,35.1,6.7,290.0,7.7,'1111122,1111122,1111122' 
NDBC,ioos:station:NOAA.NDBC:SGOF1:1,2017-02-04T01:00:00Z,29.4080,-84.8580,35.1,9.3,310.0,10.3,'1111122,1111122,1111122' 
NDBC,ioos:station:NOAA.NDBC:SGOF1:1,2017-02-04T02:00:00Z,29.4080,-84.8580,35.1,7.2,320.0,7.7,'1111122,1111122,1111122' 
NDBC,ioos:station:NOAA.NDBC:SGOF1:1,2017-02-04T03:00:00Z,29.4080,-84.8580,35.1,5.7,320.0,6.2,'1111122,1111122,1111122' 
NDBC,ioos:station:NOAA.NDBC:SGOF1:1,2017-02-04T04:00:00Z,29.4080,-84.8580,35.1,8.2,340.0,8.8,'1111122,1111122,1111122' 
NDBC,ioos:station:NOAA.NDBC:SGOF1:1,2017-02-04T05:00:00Z,29.4080,-84.8580,35.1,8.8,340.0,9.3,'1111122,1111122,1111122' 
NDBC,ioos:station:NOAA.NDBC:SGOF1:1,2017-02-04T06:00:00Z,29.4080,-84.8580,35.1,8.2,360.0,8.8,'1111122,1111122,1111122' 
NDBC,ioos:station:NOAA.NDBC:SGOF1:1,2017-02-04T07:00:00Z,29.4080,-84.8580,35.1,8.8,360.0,9.8,'1111122,1111122,1111122' 
NDBC,ioos:station:NOAA.NDBC:SGOF1:1,2017-02-04T08:00:00Z,29.4080,-84.8580,35.1,7.2,10.0,8.8,'1111122,1111122,1111122' 
NDBC,ioos:station:NOAA.NDBC:SGOF1:1,2017-02-04T09:00:00Z,29.4080,-84.8580,35.1,8.2,10.0,9.8,'1111122,1111122,1111122' 
NDBC,ioos:station:NOAA.NDBC:SGOF1:1,2017-02-04T10:00:00Z,29.4080,-84.8580,35.1,8.2,20.0,8.8,'1111122,1111122,1111122' 
NDBC,ioos:station:NOAA.NDBC:SGOF1:1,2017-02-04T11:00:00Z,29.4080,-84.8580,35.1,8.8,30.0,9.8,'1111122,1111122,1111122' 
NDBC,ioos:station:NOAA.NDBC:SGOF1:1,2017-02-04T12:00:00Z,29.4080,-84.8580,35.1,9.8,30.0,10.8,'1111122,1111122,1111122' 
NDBC,ioos:station:NOAA.NDBC:SGOF1:1,2017-02-04T13:00:00Z,29.4080,-84.8580,35.1,8.8,40.0,10.3,'1111122,1111122,1111122' 
NDBC,ioos:station:NOAA.NDBC:SGOF1:1,2017-02-04T14:00:00Z,29.4080,-84.8580,35.1,8.8,40.0,9.3,'1111122,1111122,1111122' 
NDBC,ioos:station:NOAA.NDBC:SGOF1:1,2017-02-04T15:00:00Z,29.4080,-84.8580,35.1,7.7,60.0,8.8,'1111122,1111122,1111122' 
NDBC,ioos:station:NOAA.NDBC:SGOF1:1,2017-02-04T16:00:00Z,29.4080,-84.8580,35.1,8.2,50.0,9.3,'1111122,1111122,1111122' 
NDBC,ioos:station:NOAA.NDBC:SGOF1:1,2017-02-04T17:00:00Z,29.4080,-84.8580,35.1,7.7,60.0,8.8,'1111122,1111122,1111122' 
NDBC,ioos:station:NOAA.NDBC:SGOF1:1,2017-02-04T18:00:00Z,29.4080,-84.8580,35.1,7.2,60.0,9.3,'1111122,1111122,1111122' 
NDBC,ioos:station:NOAA.NDBC:SGOF1:1,2017-02-04T19:00:00Z,29.4080,-84.8580,35.1,5.7,70.0,7.2,'1111122,1111122,1111122' 
NDBC,ioos:station:NOAA.NDBC:SGOF1:1,2017-02-04T20:00:00Z,29.4080,-84.8580,35.1,5.1,70.0,5.1,'1111122,1111122,1111122' 
NDBC,ioos:station:NOAA.NDBC:SGOF1:1,2017-02-04T21:00:00Z,29.4080,-84.8580,35.1,4.6,60.0,5.7,'1111122,1111122,1111122' 
NDBC,ioos:station:NOAA.NDBC:SGOF1:1,2017-02-04T22:00:00Z,29.4080,-84.8580,35.1,5.7,60.0,6.2,'1111122,1111122,1111122' 
NDBC,ioos:station:NOAA.NDBC:SGOF1:1,2017-02-04T23:00:00Z,29.4080,-84.8580,35.1,5.7,60.0,6.7,'1111122,1111122,1111122' 
NDBC,ioos:station:NOAA.NDBC:SGOF1:1,2017-02-05T00:00:00Z,29.4080,-84.8580,35.1,6.7,60.0,7.2,'1111122,1111122,1111122' 
NDBC,ioos:station:NOAA.NDBC:SGOF1:1,2017-02-05T01:00:00Z,29.4080,-84.8580,35.1,6.7,70.0,7.2,'1111122,1111122,1111122' 
NDBC,ioos:station:NOAA.NDBC:SGOF1:1,2017-02-05T02:00:00Z,29.4080,-84.8580,35.1,7.2,70.0,8.2,'1111122,1111122,1111122' 
NDBC,ioos:station:NOAA.NDBC:SGOF1:1,2017-02-05T03:00:00Z,29.4080,-84.8580,35.1,6.7,70.0,7.7,'1111122,1111122,1111122' 
NDBC,ioos:station:NOAA.NDBC:SGOF1:1,2017-02-05T04:00:00Z,29.4080,-84.8580,35.1,8.2,70.0,8.8,'1111122,1111122,1111122' 
NDBC,ioos:station:NOAA.NDBC:SGOF1:1,2017-02-05T05:00:00Z,29.4080,-84.8580,35.1,8.2,80.0,8.8,'1111122,1111122,1111122' 
NDBC,ioos:station:NOAA.NDBC:SGOF1:1,2017-02-05T06:00:00Z,29.4080,-84.8580,35.1,7.2,80.0,7.7,'1111122,1111122,1111122' 
NDBC,ioos:station:NOAA.NDBC:SGOF1:1,2017-02-05T07:00:00Z,29.4080,-84.8580,35.1,6.2,80.0,6.7,'1111122,1111122,1111122' 
NDBC,ioos:station:NOAA.NDBC:SGOF1:1,2017-02-05T08:00:00Z,29.4080,-84.8580,35.1,4.6,90.0,5.7,'1111122,1111122,1111122' 
NDBC,ioos:station:NOAA.NDBC:SGOF1:1,2017-02-05T09:00:00Z,29.4080,-84.8580,35.1,5.1,80.0,5.7,'1111122,1111122,1111122' 
NDBC,ioos:station:NOAA.NDBC:SGOF1:1,2017-02-05T10:00:00Z,29.4080,-84.8580,35.1,4.1,60.0,4.6,'1111122,1111122,1111122' 
NDBC,ioos:station:NOAA.NDBC:SGOF1:1,2017-02-05T11:00:00Z,29.4080,-84.8580,35.1,4.6,70.0,5.1,'1111122,1111122,1111122' 
NDBC,ioos:station:NOAA.NDBC:SGOF1:1,2017-02-05T12:00:00Z,29.4080,-84.8580,35.1,4.6,100.0,5.1,'1111122,1111122,1111122' 
NDBC,ioos:station:NOAA.NDBC:SGOF1:1,2017-02-05T13:00:00Z,29.4080,-84.8580,35.1,4.1,120.0,4.6,'1111122,1111122,1111122' 
NDBC,ioos:station:NOAA.NDBC:SGOF1:1,2017-02-05T14:00:00Z,29.4080,-84.8580,35.1,2.6,140.0,3.1,'1111122,1111122,1111122' 
NDBC,ioos:station:NOAA.NDBC:SGOF1:1,2017-02-05T15:00:00Z,29.4080,-84.8580,35.1,1.0,170.0,1.0,'1111122,1111122,1111122' 
NDBC,ioos:station:NOAA.NDBC:SGOF1:1,2017-02-05T16:00:00Z,29.4080,-84.8580,35.1,1.0,60.0,1.5,'1111122,1111122,1111122' 
NDBC,ioos:station:NOAA.NDBC:SGOF1:1,2017-02-05T17:00:00Z,29.4080,-84.8580,35.1,2.1,80.0,2.1,'1111122,1111122,1111122' 
NDBC,ioos:station:NOAA.NDBC:SGOF1:1,2017-02-05T18:00:00Z,29.4080,-84.8580,35.1,1.5,70.0,1.5,'1111122,1111122,1111122' 
NDBC,ioos:station:NOAA.NDBC:SGOF1:1,2017-02-05T19:00:00Z,29.4080,-84.8580,35.1,0.5,140.0,1.5,'1111122,1111122,1111122' 
NDBC,ioos:station:NOAA.NDBC:SGOF1:1,2017-02-05T20:00:00Z,29.4080,-84.8580,35.1,1.5,160.0,2.1,'1111122,1111122,1111122' 
NDBC,ioos:station:NOAA.NDBC:SGOF1:1,2017-02-05T21:00:00Z,29.4080,-84.8580,35.1,1.5,150.0,2.1,'1111122,1111122,1111122' 
NDBC,ioos:station:NOAA.NDBC:SGOF1:1,2017-02-05T22:00:00Z,29.4080,-84.8580,35.1,1.5,180.0,1.5,'1111122,1111122,1111122' 
NDBC,ioos:station:NOAA.NDBC:SGOF1:1,2017-02-05T23:00:00Z,29.4080,-84.8580,35.1,1.5,170.0,1.5,'1111122,1111122,1111122' 
NDBC,ioos:station:NOAA.NDBC:SGOF1:1,2017-02-06T00:00:00Z,29.4080,-84.8580,35.1,2.1,180.0,2.6,'1111122,1111122,1111122' 
NDBC,ioos:station:NOAA.NDBC:SGOF1:1,2017-02-06T01:00:00Z,29.4080,-84.8580,35.1,1.0,170.0,1.0,'1111122,1111122,1111122' 
NDBC,ioos:station:NOAA.NDBC:SGOF1:1,2017-02-06T02:00:00Z,29.4080,-84.8580,35.1,2.6,180.0,2.6,'1111122,1111122,1111122' 
NDBC,ioos:station:NOAA.NDBC:SGOF1:1,2017-02-06T03:00:00Z,29.4080,-84.8580,35.1,0.5,180.0,1.0,'1111122,1111122,1111122' 
NDBC,ioos:station:NOAA.NDBC:SGOF1:1,2017-02-06T04:00:00Z,29.4080,-84.8580,35.1,0.0,-9999.0,0.5,'1114422,1111122,1111122' 
NDBC,ioos:station:NOAA.NDBC:SGOF1:1,2017-02-06T05:00:00Z,29.4080,-84.8580,35.1,1.5,250.0,1.5,'1111122,1111122,1111122' 
NDBC,ioos:station:NOAA.NDBC:SGOF1:1,2017-02-06T06:00:00Z,29.4080,-84.8580,35.1,2.1,320.0,2.1,'1111122,1111122,1111122' 
NDBC,ioos:station:NOAA.NDBC:SGOF1:1,2017-02-06T07:00:00Z,29.4080,-84.8580,35.1,0.0,-9999.0,0.5,'1114422,1111122,1111122' 
NDBC,ioos:station:NOAA.NDBC:SGOF1:1,2017-02-06T08:00:00Z,29.4080,-84.8580,35.1,1.0,320.0,1.0,'1111122,1111122,1111122' 
NDBC,ioos:station:NOAA.NDBC:SGOF1:1,2017-02-06T09:00:00Z,29.4080,-84.8580,35.1,0.5,350.0,0.5,'1111122,1111122,1111122' 
NDBC,ioos:station:NOAA.NDBC:SGOF1:1,2017-02-06T10:00:00Z,29.4080,-84.8580,35.1,1.0,10.0,1.0,'1111122,1111122,1111122' 
NDBC,ioos:station:NOAA.NDBC:SGOF1:1,2017-02-06T12:00:00Z,29.4080,-84.8580,35.1,3.1,70.0,3.1,'1111122,1111122,1111122' 
NDBC,ioos:station:NOAA.NDBC:SGOF1:1,2017-02-06T13:00:00Z,29.4080,-84.8580,35.1,4.1,70.0,4.6,'1111122,1111122,1111122' 
NDBC,ioos:station:NOAA.NDBC:SGOF1:1,2017-02-06T14:00:00Z,29.4080,-84.8580,35.1,4.6,70.0,4.6,'1111122,1111122,1111122' 
NDBC,ioos:station:NOAA.NDBC:SGOF1:1,2017-02-06T15:00:00Z,29.4080,-84.8580,35.1,5.7,70.0,5.7,'1111122,1111122,1111122' 
NDBC,ioos:station:NOAA.NDBC:SGOF1:1,2017-02-06T16:00:00Z,29.4080,-84.8580,35.1,5.1,80.0,5.7,'1111122,1111122,1111122' 
NDBC,ioos:station:NOAA.NDBC:SGOF1:1,2017-02-06T17:00:00Z,29.4080,-84.8580,35.1,4.6,90.0,5.1,'1111122,1111122,1111122' 
NDBC,ioos:station:NOAA.NDBC:SGOF1:1,2017-02-06T18:00:00Z,29.4080,-84.8580,35.1,4.1,90.0,4.6,'1111122,1111122,1111122' 
NDBC,ioos:station:NOAA.NDBC:SGOF1:1,2017-02-06T19:00:00Z,29.4080,-84.8580,35.1,3.6,110.0,4.6,'1111122,1111122,1111122' 
NDBC,ioos:station:NOAA.NDBC:SGOF1:1,2017-02-06T20:00:00Z,29.4080,-84.8580,35.1,5.1,130.0,5.1,'1111122,1111122,1111122' 
NDBC,ioos:station:NOAA.NDBC:SGOF1:1,2017-02-06T21:00:00Z,29.4080,-84.8580,35.1,4.6,130.0,4.6,'1111122,1111122,1111122' 
NDBC,ioos:station:NOAA.NDBC:SGOF1:1,2017-02-06T22:00:00Z,29.4080,-84.8580,35.1,4.1,120.0,4.6,'1111122,1111122,1111122' 
NDBC,ioos:station:NOAA.NDBC:SGOF1:1,2017-02-07T00:00:00Z,29.4080,-84.8580,35.1,3.6,130.0,3.6,'1111122,1111122,1111122' 
NDBC,ioos:station:NOAA.NDBC:SGOF1:1,2017-02-07T02:00:00Z,29.4080,-84.8580,35.1,3.6,120.0,3.6,'1111122,1111122,1111122' 
NDBC,ioos:station:NOAA.NDBC:SGOF1:1,2017-02-07T03:00:00Z,29.4080,-84.8580,35.1,4.6,110.0,4.6,'1111122,1111122,1111122' 
NDBC,ioos:station:NOAA.NDBC:SGOF1:1,2017-02-07T04:00:00Z,29.4080,-84.8580,35.1,5.1,130.0,5.1,'1111122,1111122,1111122' 
NDBC,ioos:station:NOAA.NDBC:SGOF1:1,2017-02-07T05:00:00Z,29.4080,-84.8580,35.1,4.6,130.0,4.6,'1111122,1111122,1111122' 
NDBC,ioos:station:NOAA.NDBC:SGOF1:1,2017-02-07T06:00:00Z,29.4080,-84.8580,35.1,5.7,160.0,5.7,'1111122,1111122,1111122' 
NDBC,ioos:station:NOAA.NDBC:SGOF1:1,2017-02-07T07:00:00Z,29.4080,-84.8580,35.1,5.7,170.0,5.7,'1111122,1111122,1111122' 
NDBC,ioos:station:NOAA.NDBC:SGOF1:1,2017-02-07T08:00:00Z,29.4080,-84.8580,35.1,5.7,160.0,5.7,'1111122,1111122,1111122' 
NDBC,ioos:station:NOAA.NDBC:SGOF1:1,2017-02-07T09:00:00Z,29.4080,-84.8580,35.1,6.2,160.0,6.2,'1111122,1111122,1111122' 
NDBC,ioos:station:NOAA.NDBC:SGOF1:1,2017-02-07T10:00:00Z,29.4080,-84.8580,35.1,5.7,150.0,6.2,'1111122,1111122,1111122' 
NDBC,ioos:station:NOAA.NDBC:SGOF1:1,2017-02-07T11:00:00Z,29.4080,-84.8580,35.1,5.1,170.0,5.1,'1111122,1111122,1111122' 
NDBC,ioos:station:NOAA.NDBC:SGOF1:1,2017-02-07T12:00:00Z,29.4080,-84.8580,35.1,6.2,170.0,6.2,'1111122,1111122,1111122' 
NDBC,ioos:station:NOAA.NDBC:SGOF1:1,2017-02-07T13:00:00Z,29.4080,-84.8580,35.1,5.1,180.0,5.7,'1111122,1111122,1111122' 
NDBC,ioos:station:NOAA.NDBC:SGOF1:1,2017-02-07T14:00:00Z,29.4080,-84.8580,35.1,6.7,160.0,7.2,'1111122,1111122,1111122' 
NDBC,ioos:station:NOAA.NDBC:SGOF1:1,2017-02-07T15:00:00Z,29.4080,-84.8580,35.1,8.2,170.0,8.2,'1111122,1111122,1111122' 
NDBC,ioos:station:NOAA.NDBC:SGOF1:1,2017-02-07T16:00:00Z,29.4080,-84.8580,35.1,6.2,170.0,6.7,'1111122,1111122,1111122' 
NDBC,ioos:station:NOAA.NDBC:SGOF1:1,2017-02-07T17:00:00Z,29.4080,-84.8580,35.1,6.2,180.0,6.7,'1111122,1111122,1111122' 
NDBC,ioos:station:NOAA.NDBC:SGOF1:1,2017-02-07T18:00:00Z,29.4080,-84.8580,35.1,6.7,170.0,7.2,'1111122,1111122,1111122' 
NDBC,ioos:station:NOAA.NDBC:SGOF1:1,2017-02-07T19:00:00Z,29.4080,-84.8580,35.1,7.7,170.0,8.2,'1111122,1111122,1111122' 
NDBC,ioos:station:NOAA.NDBC:SGOF1:1,2017-02-07T20:00:00Z,29.4080,-84.8580,35.1,8.8,180.0,9.3,'1111122,1111122,1111122' 
NDBC,ioos:station:NOAA.NDBC:SGOF1:1,2017-02-07T21:00:00Z,29.4080,-84.8580,35.1,9.8,180.0,9.8,'1111122,1111122,1111122' 
NDBC,ioos:station:NOAA.NDBC:SGOF1:1,2017-02-07T22:00:00Z,29.4080,-84.8580,35.1,10.3,180.0,10.8,'1111122,1111122,1111122' 
NDBC,ioos:station:NOAA.NDBC:SGOF1:1,2017-02-07T23:00:00Z,29.4080,-84.8580,35.1,10.3,180.0,10.8,'1111122,1111122,1111122' 
NDBC,ioos:station:NOAA.NDBC:SGOF1:1,2017-02-08T00:00:00Z,29.4080,-84.8580,35.1,10.8,180.0,11.3,'1111122,1111122,1111122' 
NDBC,ioos:station:NOAA.NDBC:SGOF1:1,2017-02-08T01:00:00Z,29.4080,-84.8580,35.1,10.8,330.0,12.4,'1111122,1111122,1111122' 
NDBC,ioos:station:NOAA.NDBC:SGOF1:1,2017-02-08T03:00:00Z,29.4080,-84.8580,35.1,4.1,130.0,4.6,'1111122,1111122,1111122' 
NDBC,ioos:station:NOAA.NDBC:SGOF1:1,2017-02-08T04:00:00Z,29.4080,-84.8580,35.1,3.1,90.0,3.6,'1111122,1111122,1111122' 
NDBC,ioos:station:NOAA.NDBC:SGOF1:1,2017-02-08T05:00:00Z,29.4080,-84.8580,35.1,5.7,80.0,6.2,'1111122,1111122,1111122' 
NDBC,ioos:station:NOAA.NDBC:SGOF1:1,2017-02-08T06:00:00Z,29.4080,-84.8580,35.1,4.1,110.0,4.6,'1111122,1111122,1111122' 
NDBC,ioos:station:NOAA.NDBC:SGOF1:1,2017-02-08T07:00:00Z,29.4080,-84.8580,35.1,6.7,150.0,7.2,'1111122,1111122,1111122' 
NDBC,ioos:station:NOAA.NDBC:SGOF1:1,2017-02-08T08:00:00Z,29.4080,-84.8580,35.1,6.7,160.0,7.2,'1111122,1111122,1111122' 
NDBC,ioos:station:NOAA.NDBC:SGOF1:1,2017-02-08T09:00:00Z,29.4080,-84.8580,35.1,8.2,170.0,8.8,'1111122,1111122,1111122' 
NDBC,ioos:station:NOAA.NDBC:SGOF1:1,2017-02-08T10:00:00Z,29.4080,-84.8580,35.1,9.8,170.0,11.3,'1111122,1111122,1111122' 
NDBC,ioos:station:NOAA.NDBC:SGOF1:1,2017-02-08T11:00:00Z,29.4080,-84.8580,35.1,10.8,170.0,11.3,'1111122,1111122,1111122' 
NDBC,ioos:station:NOAA.NDBC:SGOF1:1,2017-02-08T12:00:00Z,29.4080,-84.8580,35.1,7.7,180.0,8.2,'1111122,1111122,1111122' 
NDBC,ioos:station:NOAA.NDBC:SGOF1:1,2017-02-08T14:00:00Z,29.4080,-84.8580,35.1,6.2,220.0,6.7,'1111122,1111122,1111122' 
NDBC,ioos:station:NOAA.NDBC:SGOF1:1,2017-02-08T15:00:00Z,29.4080,-84.8580,35.1,5.7,240.0,5.7,'1111122,1111122,1111122' 
NDBC,ioos:station:NOAA.NDBC:SGOF1:1,2017-02-08T16:00:00Z,29.4080,-84.8580,35.1,6.7,240.0,6.7,'1111122,1111122,1111122' 
NDBC,ioos:station:NOAA.NDBC:SGOF1:1,2017-02-08T17:00:00Z,29.4080,-84.8580,35.1,8.2,240.0,8.2,'1111122,1111122,1111122' 
NDBC,ioos:station:NOAA.NDBC:SGOF1:1,2017-02-08T18:00:00Z,29.4080,-84.8580,35.1,9.3,230.0,9.3,'1111122,1111122,1111122' 
NDBC,ioos:station:NOAA.NDBC:SGOF1:1,2017-02-08T19:00:00Z,29.4080,-84.8580,35.1,9.3,230.0,9.8,'1111122,1111122,1111122' 
NDBC,ioos:station:NOAA.NDBC:SGOF1:1,2017-02-08T20:00:00Z,29.4080,-84.8580,35.1,8.8,220.0,9.3,'1111122,1111122,1111122' 
NDBC,ioos:station:NOAA.NDBC:SGOF1:1,2017-02-08T21:00:00Z,29.4080,-84.8580,35.1,7.7,230.0,8.2,'1111122,1111122,1111122' 
NDBC,ioos:station:NOAA.NDBC:SGOF1:1,2017-02-08T22:00:00Z,29.4080,-84.8580,35.1,7.7,220.0,8.2,'1111122,1111122,1111122' 
NDBC,ioos:station:NOAA.NDBC:SGOF1:1,2017-02-08T23:00:00Z,29.4080,-84.8580,35.1,10.3,220.0,10.8,'1111122,1111122,1111122' 
NDBC,ioos:station:NOAA.NDBC:SGOF1:1,2017-02-09T00:00:00Z,29.4080,-84.8580,35.1,8.8,230.0,9.3,'1111122,1111122,1111122' 
NDBC,ioos:station:NOAA.NDBC:SGOF1:1,2017-02-09T01:00:00Z,29.4080,-84.8580,35.1,8.8,240.0,9.3,'1111122,1111122,1111122' 
NDBC,ioos:station:NOAA.NDBC:SGOF1:1,2017-02-09T02:00:00Z,29.4080,-84.8580,35.1,9.8,230.0,10.3,'1111122,1111122,1111122' 
NDBC,ioos:station:NOAA.NDBC:SGOF1:1,2017-02-09T03:00:00Z,29.4080,-84.8580,35.1,10.3,220.0,10.8,'1111122,1111122,1111122' 
NDBC,ioos:station:NOAA.NDBC:SGOF1:1,2017-02-09T04:00:00Z,29.4080,-84.8580,35.1,9.8,240.0,9.8,'1111122,1111122,1111122' 
NDBC,ioos:station:NOAA.NDBC:SGOF1:1,2017-02-09T05:00:00Z,29.4080,-84.8580,35.1,10.3,240.0,10.8,'1111122,1111122,1111122' 
NDBC,ioos:station:NOAA.NDBC:SGOF1:1,2017-02-09T06:00:00Z,29.4080,-84.8580,35.1,9.8,240.0,10.8,'1111122,1111122,1111122' 
NDBC,ioos:station:NOAA.NDBC:SGOF1:1,2017-02-09T07:00:00Z,29.4080,-84.8580,35.1,10.3,250.0,11.3,'1111122,1111122,1111122' 
NDBC,ioos:station:NOAA.NDBC:SGOF1:1,2017-02-09T08:00:00Z,29.4080,-84.8580,35.1,10.3,260.0,11.3,'1111122,1111122,1111122' 
NDBC,ioos:station:NOAA.NDBC:SGOF1:1,2017-02-09T09:00:00Z,29.4080,-84.8580,35.1,10.3,270.0,10.8,'1111122,1111122,1111122' 
NDBC,ioos:station:NOAA.NDBC:SGOF1:1,2017-02-09T10:00:00Z,29.4080,-84.8580,35.1,10.3,280.0,11.3,'1111122,1111122,1111122' 
NDBC,ioos:station:NOAA.NDBC:SGOF1:1,2017-02-09T11:00:00Z,29.4080,-84.8580,35.1,9.8,300.0,10.8,'1111122,1111122,1111122' 
NDBC,ioos:station:NOAA.NDBC:SGOF1:1,2017-02-09T12:00:00Z,29.4080,-84.8580,35.1,9.3,300.0,9.8,'1111122,1111122,1111122' 
NDBC,ioos:station:NOAA.NDBC:SGOF1:1,2017-02-09T13:00:00Z,29.4080,-84.8580,35.1,7.7,300.0,8.2,'1111122,1111122,1111122' 